Wind_Speed
29 28 27 28 30 30 29 29 31 25 21 16 12 8 9 11 11 11 8 14 14 12 10 12 14 13 13 19 19 12 9 11 13 13 9 8 4 3 3 7 9 9 5 3 13
29 28 28 28 29 30 29 29 30 23 18 15 11 7 8 9 10 10 11 10 12 10 12 12 13 13 14 16 17 15 12 10 5 6 10 12 5 7 10 8 14 10 6 10 17
28 27 27 27 29 30 30 30 27 19 15 14 11 9 9 10 6 8 6 8 8 9 9 10 11 13 15 17 18 10 10 7 6 12 8 6 17 7 8 10 5 5 5 10 19
28 26 26 26 28 29 30 27 22 16 15 14 12 10 10 7 6 6 5 5 7 6 7 10 10 12 14 16 16 10 7 8 8 5 20 16 19 9 6 5 7 8 5 15 18
26 25 24 26 28 27 27 23 18 14 14 12 12 10 9 9 7 7 9 8 6 5 5 5 7 10 10 13 11 8 3 2 18 14 17 14 13 9 9 5 5 12 16 14 16
24 23 24 26 27 25 22 18 14 13 12 12 11 9 10 13 12 13 10 9 9 10 8 9 10 7 13 13 7 6 5 7 19 16 18 14 13 11 10 7 8 18 20 18 16
23 24 24 25 24 22 18 14 12 11 11 11 10 11 16 13 16 14 11 11 9 10 8 10 8 10 12 9 4 9 7 11 16 14 16 16 13 6 8 9 13 17 16 18 18
22 24 24 23 20 17 14 13 11 12 12 11 12 16 15 15 19 14 14 12 10 8 10 9 10 11 10 10 14 10 9 14 13 13 15 15 10 8 7 10 12 7 9 11 12
22 24 23 20 15 14 12 13 13 13 12 12 16 18 15 16 17 14 13 12 8 6 6 7 9 10 14 18 14 10 7 12 13 12 12 11 5 10 8 12 13 8 6 6 9
21 24 20 17 11 14 12 14 13 14 14 15 19 15 13 14 19 15 14 11 9 3 4 9 6 10 19 15 9 10 9 9 11 14 13 11 9 6 5 11 12 13 11 10 9
21 22 18 14 11 14 13 14 14 15 16 16 19 10 12 12 20 17 13 12 6 3 3 7 9 13 13 10 6 6 7 6 10 10 13 8 9 8 5 6 15 15 14 13 14
21 19 17 13 14 13 14 14 13 10 13 18 20 9 10 14 21 18 14 11 5 4 6 9 10 11 10 8 5 5 4 2 8 15 14 13 11 10 8 10 14 20 18 17 16
21 18 17 13 15 15 16 15 12 8 13 17 15 14 6 9 20 21 19 13 7 8 11 12 12 10 8 7 5 4 3 5 5 8 11 10 11 12 13 12 15 22 21 20 20
20 20 17 18 18 21 17 14 11 9 11 18 12 11 9 10 14 23 20 13 9 11 11 9 11 9 6 5 3 4 4 3 6 7 4 9 6 13 15 15 16 21 22 21 20
22 22 21 22 26 21 16 14 12 15 3 14 13 12 11 11 12 18 20 12 12 14 10 9 9 7 6 3 2 3 4 5 5 7 6 9 5 14 18 20 21 22 23 19 14
26 26 27 29 25 19 16 16 13 7 4 12 19 15 13 11 13 16 18 14 14 13 10 12 10 7 3 2 3 3 6 6 5 3 2 9 9 11 16 19 23 22 19 15 12
30 29 31 32 26 21 18 18 9 6 8 13 20 18 14 11 15 17 16 16 16 14 12 11 8 5 5 6 5 5 6 1 1 0 3 7 7 17 10 11 14 17 17 16 15
33 35 37 33 27 22 20 20 6 9 13 13 19 19 15 13 14 17 14 18 15 11 14 9 4 6 7 10 5 6 10 5 4 3 1 6 6 6 8 11 11 13 15 17 18
38 40 39 36 27 24 22 22 9 6 15 16 20 20 16 15 12 19 17 15 14 11 8 9 6 9 7 10 9 6 6 8 3 1 2 5 8 11 11 9 15 19 20 19 17
40 42 39 36 29 25 23 19 10 8 17 19 21 21 17 15 11 18 17 15 13 12 10 7 6 9 8 9 12 9 5 3 4 3 3 3 8 10 4 6 14 20 20 20 17
43 41 39 37 29 27 27 25 15 10 15 19 19 18 17 17 9 15 15 11 14 12 11 11 8 8 8 8 10 10 10 5 4 3 3 1 5 3 2 6 7 11 16 15 15
45 42 40 36 32 29 30 27 12 11 18 19 17 15 17 18 12 13 11 12 11 15 13 14 9 9 14 9 9 11 11 9 5 5 5 2 7 3 3 4 11 13 14 16 19
43 38 37 36 35 30 30 26 13 13 18 23 18 12 13 13 14 13 13 10 11 8 12 15 10 7 4 10 14 15 16 14 12 8 9 4 4 4 10 9 9 16 20 21 23
42 31 39 37 33 33 30 26 14 13 15 20 20 15 11 9 18 11 15 14 13 12 12 14 16 12 14 7 8 19 21 18 16 10 11 19 20 18 15 14 11 13 18 22 24
42 30 41 41 37 34 28 26 14 14 13 15 15 17 14 10 18 16 17 17 15 14 14 15 15 18 17 14 12 13 14 19 22 22 19 23 23 18 17 17 14 15 19 22 24
39 28 36 17 36 31 30 25 19 14 14 14 12 13 13 11 13 16 10 11 13 14 15 16 11 13 16 18 17 18 18 19 22 24 28 29 30 21 17 15 15 14 16 18 22
33 25 27 31 36 34 31 30 21 17 12 10 11 14 13 12 10 8 9 11 12 14 14 15 13 10 8 13 16 17 26 26 27 28 29 31 27 23 19 19 17 17 16 16 19
Wind_Direction
280 282 287 292 295 297 301 303 299 294 290 279 263 260 270 259 257 265 283 251 257 258 247 238 230 216 206 199 201 191 181 174 164 211 203 98 89 221 327 158 207 181 188 136 183
277 282 287 290 293 296 300 301 297 291 282 262 252 249 252 256 265 272 249 259 245 239 240 227 216 202 195 190 194 195 202 195 244 210 209 234 121 226 208 229 203 207 193 147 163
276 282 285 288 291 296 299 301 295 283 267 247 235 235 247 257 265 246 240 226 240 238 224 205 202 195 189 184 190 207 206 242 224 164 175 212 186 224 202 215 212 267 243 165 153
277 280 282 286 290 296 299 299 287 271 249 236 228 229 242 238 190 237 239 197 171 167 185 199 200 199 186 194 188 205 212 186 170 217 239 227 204 213 152 115 107 122 151 157 148
275 277 279 284 289 295 298 294 276 257 238 225 221 218 216 185 184 164 147 145 147 157 180 172 172 161 188 190 184 235 258 34 190 207 207 215 199 187 155 150 77 112 124 145 143
273 274 277 284 290 295 293 283 266 246 227 217 212 199 181 176 165 151 149 162 166 163 167 139 143 143 165 182 216 199 175 166 174 198 206 174 169 181 186 166 107 112 116 122 132
270 273 277 284 291 290 283 266 250 229 216 212 199 179 175 174 163 154 162 151 151 164 159 178 168 183 192 213 145 154 155 152 164 166 160 166 167 165 161 152 121 126 125 129 133
267 271 277 284 285 280 266 246 228 216 205 201 181 175 166 183 159 158 151 146 148 134 137 146 163 182 173 175 165 170 173 156 160 154 168 167 175 186 161 150 139 146 137 128 132
263 271 276 279 271 262 244 227 211 206 195 189 176 173 174 183 169 155 155 156 156 126 136 129 151 171 178 163 159 173 170 176 162 173 175 187 201 197 167 168 172 181 197 185 175
259 268 271 265 251 238 220 214 199 197 191 180 172 171 186 192 174 163 168 166 160 138 115 140 125 154 152 168 176 195 160 141 167 188 205 216 202 144 176 197 200 199 207 221 229
256 263 259 243 230 218 210 203 193 194 192 173 172 177 186 196 180 174 176 184 190 197 241 174 152 165 167 193 223 165 201 210 189 182 197 199 209 238 248 238 216 215 221 232 232
251 252 240 221 215 200 200 185 185 192 183 178 180 179 174 193 184 179 179 197 181 233 207 173 178 181 186 182 179 167 202 152 186 202 204 217 225 243 265 262 236 218 226 237 248
241 233 221 201 199 184 185 176 178 181 185 176 181 195 196 187 191 191 194 208 204 190 180 192 188 182 173 181 189 151 155 143 157 162 195 216 233 252 264 254 239 219 227 238 249
229 216 199 190 180 178 176 170 163 170 178 187 184 186 175 181 196 191 201 208 193 179 155 161 169 161 164 178 142 156 177 185 174 177 196 213 252 247 254 252 242 227 231 244 254
214 202 185 183 177 174 172 166 159 159 125 199 191 178 179 179 179 188 204 198 191 182 178 158 157 164 194 169 169 185 206 219 212 220 226 238 249 257 253 242 239 235 237 242 233
202 192 183 176 173 168 172 168 168 191 230 172 187 185 182 182 179 172 186 187 182 190 179 182 173 184 218 236 232 200 217 228 223 228 233 233 227 262 252 251 235 226 219 216 213
195 186 177 174 165 165 177 174 183 213 165 180 182 189 184 181 176 172 180 186 167 147 158 155 174 208 235 239 226 221 209 23 327 211 239 213 240 245 257 257 231 228 212 207 199
187 179 175 171 166 171 175 178 210 204 183 181 183 177 188 185 184 179 178 178 178 177 172 177 163 208 230 225 224 208 208 190 200 203 242 215 237 244 251 260 221 208 212 208 209
180 175 174 172 168 175 180 189 198 216 183 183 177 179 180 189 182 185 186 186 184 188 184 180 184 208 217 213 209 207 207 215 198 204 251 230 267 266 253 249 219 207 216 222 229
176 176 175 174 171 180 188 195 196 189 182 180 176 189 185 186 188 188 187 196 196 196 203 207 174 206 217 212 218 227 221 170 192 158 245 280 277 248 279 254 226 220 231 238 242
175 177 178 180 178 187 198 196 205 198 188 185 193 181 192 184 194 192 195 192 203 210 220 219 216 205 214 221 228 209 207 208 189 192 175 286 261 253 270 228 242 244 250 241 246
175 180 179 182 183 194 199 197 197 179 182 184 185 189 187 195 198 201 196 205 208 215 221 221 220 199 211 218 218 217 216 217 209 209 208 210 272 276 333 272 228 221 222 233 245
175 177 180 186 190 193 195 191 185 162 177 188 192 187 198 202 204 207 206 212 219 217 220 218 211 184 201 236 231 228 231 233 233 239 226 185 258 276 313 303 253 225 232 244 255
175 178 183 189 196 200 194 190 173 162 175 197 204 205 205 219 214 215 215 215 222 231 229 216 221 222 221 235 224 225 233 231 231 231 240 245 272 290 294 293 277 252 252 256 261
179 190 189 193 196 201 197 191 174 170 173 178 187 204 217 228 211 209 213 220 227 226 228 218 229 236 245 246 241 239 241 237 241 252 250 275 277 293 293 291 280 260 258 265 269
182 189 195 194 199 200 199 197 190 184 178 183 198 201 205 216 216 212 214 219 229 229 224 220 230 237 242 245 248 250 250 248 248 253 261 269 284 291 289 279 277 275 266 268 271
186 190 196 197 198 204 202 201 195 202 190 198 206 199 204 214 213 227 232 233 227 229 225 220 229 238 243 249 251 261 256 258 264 269 273 273 293 283 281 281 285 283 272 272 269
Height
3138 3137 3137 3137 3136 3134 3132 3129 3129 3127 3125 3125 3125 3126 3126 3128 3128 3130 3131 3131 3131 3132 3133 3133 3134 3136 3139 3142 3145 3147 3150 3149 3151 3154 3157 3158 3160 3162 3161 3160 3162 3163 3164 3164 3165
3133 3133 3133 3132 3131 3129 3127 3125 3125 3122 3122 3122 3122 3123 3125 3126 3127 3128 3128 3128 3128 3129 3130 3131 3132 3135 3137 3140 3144 3146 3148 3149 3150 3152 3155 3158 3158 3158 3159 3158 3161 3163 3164 3164 3166
3127 3128 3128 3127 3126 3124 3122 3120 3120 3117 3118 3118 3120 3121 3123 3124 3126 3125 3125 3126 3127 3128 3128 3130 3131 3133 3136 3138 3142 3145 3146 3148 3149 3152 3153 3156 3153 3158 3159 3160 3161 3163 3164 3165 3168
3123 3123 3123 3122 3120 3119 3118 3116 3116 3114 3114 3115 3117 3119 3121 3123 3126 3124 3124 3125 3126 3127 3129 3130 3131 3134 3136 3138 3141 3144 3145 3145 3146 3151 3151 3154 3156 3159 3161 3161 3161 3161 3162 3165 3168
3118 3118 3118 3117 3116 3114 3113 3112 3112 3111 3112 3113 3115 3117 3120 3122 3124 3124 3124 3126 3127 3128 3129 3130 3132 3134 3136 3139 3142 3143 3143 3143 3145 3149 3150 3153 3158 3160 3160 3162 3162 3161 3162 3166 3168
3114 3114 3113 3112 3111 3110 3109 3109 3109 3109 3110 3112 3113 3116 3119 3122 3123 3124 3125 3126 3127 3128 3129 3130 3133 3135 3136 3139 3141 3141 3142 3143 3144 3146 3151 3155 3157 3159 3161 3162 3164 3164 3163 3166 3169
3109 3110 3109 3108 3107 3105 3105 3107 3107 3108 3109 3111 3113 3115 3118 3122 3122 3124 3126 3127 3128 3129 3129 3131 3133 3135 3137 3138 3140 3141 3143 3144 3145 3148 3152 3155 3158 3159 3161 3163 3164 3165 3165 3167 3169
3105 3105 3105 3103 3101 3101 3103 3104 3105 3106 3108 3111 3112 3115 3118 3120 3122 3124 3126 3128 3129 3129 3130 3131 3132 3133 3135 3138 3140 3141 3143 3145 3148 3150 3153 3155 3158 3159 3160 3162 3164 3166 3166 3168 3170
3101 3102 3101 3099 3097 3098 3100 3102 3103 3105 3107 3110 3112 3115 3118 3120 3123 3125 3127 3128 3128 3129 3130 3131 3132 3133 3135 3137 3139 3141 3142 3145 3148 3150 3152 3156 3157 3158 3159 3162 3164 3165 3166 3168 3170
3095 3097 3096 3096 3093 3096 3097 3101 3101 3104 3106 3109 3112 3118 3118 3120 3122 3124 3126 3128 3128 3129 3131 3132 3132 3133 3135 3138 3139 3140 3141 3143 3146 3150 3152 3154 3156 3157 3159 3160 3162 3164 3166 3166 3168
3090 3092 3092 3091 3090 3094 3096 3100 3103 3105 3105 3109 3112 3115 3116 3119 3122 3124 3126 3127 3128 3130 3131 3132 3134 3134 3136 3138 3139 3140 3141 3143 3145 3147 3150 3152 3154 3156 3156 3157 3159 3161 3164 3165 3166
3086 3088 3089 3087 3090 3092 3096 3098 3101 3105 3106 3109 3111 3114 3116 3118 3121 3123 3126 3128 3128 3130 3131 3133 3133 3135 3137 3137 3139 3139 3140 3141 3142 3145 3148 3149 3151 3152 3153 3154 3155 3157 3160 3162 3163
3082 3083 3085 3085 3089 3092 3096 3098 3101 3103 3106 3110 3111 3113 3116 3118 3119 3122 3125 3126 3128 3130 3130 3132 3134 3135 3136 3137 3138 3139 3140 3141 3142 3143 3145 3147 3149 3149 3150 3150 3151 3153 3156 3158 3159
3077 3079 3081 3084 3089 3091 3094 3098 3101 3104 3107 3109 3110 3113 3115 3116 3119 3121 3123 3127 3127 3130 3131 3133 3133 3134 3136 3137 3137 3138 3140 3141 3142 3143 3144 3145 3146 3145 3146 3147 3148 3150 3152 3154 3156
3073 3076 3078 3083 3086 3090 3095 3099 3102 3105 3107 3110 3110 3112 3114 3117 3118 3119 3122 3125 3127 3128 3131 3132 3133 3134 3136 3136 3136 3139 3140 3141 3141 3142 3143 3143 3145 3141 3142 3143 3144 3146 3148 3150 3151
3068 3071 3075 3080 3086 3091 3095 3099 3103 3107 3102 3104 3107 3110 3113 3114 3115 3117 3121 3124 3125 3126 3127 3130 3132 3133 3134 3134 3136 3138 3139 3140 3140 3140 3141 3141 3143 3138 3138 3139 3140 3142 3144 3146 3148
3063 3067 3074 3080 3085 3089 3094 3099 3103 3101 3101 3103 3104 3108 3111 3113 3115 3117 3119 3120 3122 3124 3127 3128 3130 3132 3133 3134 3135 3137 3138 3139 3141 3141 3139 3138 3139 3135 3135 3135 3137 3140 3142 3144 3146
3058 3063 3070 3078 3083 3087 3092 3098 3098 3096 3098 3099 3103 3107 3110 3112 3114 3115 3117 3119 3120 3122 3125 3127 3131 3131 3132 3133 3135 3135 3137 3137 3139 3139 3137 3137 3134 3131 3131 3132 3134 3138 3140 3142 3144
3052 3059 3066 3074 3080 3085 3091 3093 3093 3094 3097 3098 3102 3105 3107 3110 3112 3114 3116 3118 3119 3121 3125 3126 3128 3129 3131 3132 3134 3134 3135 3135 3135 3137 3137 3133 3131 3129 3129 3130 3131 3133 3136 3139 3141
3049 3057 3065 3071 3077 3082 3087 3089 3091 3093 3094 3097 3100 3103 3105 3108 3110 3112 3114 3117 3118 3120 3122 3125 3127 3128 3129 3130 3132 3132 3133 3134 3134 3136 3135 3130 3128 3126 3127 3128 3129 3130 3133 3136 3138
3046 3054 3061 3067 3074 3079 3082 3086 3090 3091 3093 3096 3098 3100 3103 3105 3108 3110 3113 3115 3117 3119 3121 3123 3126 3128 3128 3128 3128 3129 3129 3131 3132 3133 3132 3132 3126 3125 3126 3126 3128 3129 3131 3133 3134
3040 3049 3057 3064 3070 3074 3079 3084 3088 3088 3091 3094 3098 3099 3102 3105 3107 3109 3111 3114 3115 3117 3120 3122 3123 3124 3126 3125 3126 3126 3127 3128 3129 3130 3130 3130 3126 3123 3124 3124 3125 3127 3128 3130 3131
3037 3048 3054 3060 3064 3070 3076 3081 3085 3087 3089 3093 3096 3098 3101 3102 3106 3107 3109 3112 3114 3115 3117 3119 3120 3121 3123 3126 3124 3123 3124 3125 3126 3126 3126 3127 3122 3121 3121 3121 3122 3122 3124 3125 3126
3038 3044 3050 3057 3062 3068 3073 3079 3083 3085 3088 3091 3094 3097 3099 3101 3103 3105 3107 3110 3111 3113 3114 3116 3116 3117 3118 3118 3119 3119 3120 3121 3122 3122 3121 3119 3118 3119 3118 3117 3117 3118 3119 3120 3120
3032 3038 3044 3049 3057 3064 3071 3077 3080 3083 3086 3089 3092 3094 3097 3098 3100 3102 3104 3107 3109 3110 3111 3113 3113 3114 3115 3116 3116 3116 3116 3116 3117 3117 3117 3115 3113 3115 3114 3113 3112 3113 3114 3114 3114
3030 3036 3043 3049 3057 3063 3068 3073 3077 3081 3084 3087 3090 3092 3094 3097 3099 3100 3102 3104 3106 3107 3108 3109 3110 3111 3111 3112 3112 3112 3112 3112 3112 3112 3110 3109 3107 3110 3109 3108 3107 3107 3108 3108 3108
3028 3036 3043 3049 3053 3059 3064 3070 3075 3079 3083 3085 3088 3090 3092 3095 3097 3098 3100 3101 3102 3103 3104 3106 3107 3108 3108 3108 3108 3108 3105 3106 3106 3106 3105 3103 3103 3103 3103 3103 3102 3101 3101 3101 3101